Flag for South Africa

Past Weather in Durban, South Africa — Yesterday and Last 2 Weeks

Now
66 °F

Clear.


Feels Like: 66 °F
Forecast: 75 / 61 °F
Wind: 16 mph from Northeast

Location: King Shaka International Airport
Current Time: Sep 30, 2020 at 9:39:08 pm
Latest Report: Sep 30, 2020 at 8:21 pm
Visibility: 10 mi
Pressure29.95 "Hg
Humidity: 68%
Dew Point: 55 °F
Location of DurbanLocation

Past Weather in Durban — Graph

°F

Durban Temperature Yesterday

Maximum temperature yesterday: 68 °F (at 12:00 pm)
Minimum temperature yesterday: 57 °F (at 12:00 am)
Average temperature yesterday: 61 °F

High & Low Weather Summary for the Past Weeks

 TemperatureHumidityPressure
High97 °F (Sep 25, 12:20 pm)94% (Sep 16, 4:00 am)30.48 "Hg (Sep 16, 4:00 am)
Low52 °F (Sep 23, 1:00 am)26% (Sep 25, 11:00 am)29.45 "Hg (Sep 25, 3:00 pm)
Average65 °F76%30.04 "Hg
* Reported Sep 15 8:00 pm — Sep 30 8:21 pm, Durban. Weather by CustomWeather, © 2020

Note: Actual official high and low records may vary slightly from our data, if they occured in-between our weather recording intervals... More about our weather records

Durban Weather History for the Previous 24 Hours

Scroll right to see more
 ConditionsComfort  
Time TempWeatherWind HumidityBarometerVisibility
8:21 pm
Wed, Sep 30
66 °FClear.16 mph68%29.95 "Hg10 mi
8:00 pm66 °FClear.17 mph73%29.98 "Hg10 mi
7:00 pm66 °FClear.17 mph78%29.95 "Hg10 mi
6:00 pm66 °FClear.18 mph73%29.98 "Hg10 mi
5:00 pm66 °FSunny.20 mph73%29.98 "Hg10 mi
4:00 pm68 °FSunny.20 mph69%29.98 "Hg10 mi
3:00 pm70 °FPassing clouds.22 mph64%30.01 "HgN/A
2:00 pm70 °FScattered clouds.20 mph64%30.04 "HgN/A
1:00 pm70 °FPassing clouds.16 mph69%30.09 "HgN/A
12:00 pm70 °FScattered clouds.17 mph60%30.12 "HgN/A
11:55 am72 °FScattered clouds.17 mph57%30.12 "HgN/A
11:00 am68 °FBroken clouds.14 mph69%30.18 "HgN/A
10:00 am66 °FBroken clouds.9 mph68%30.24 "HgN/A
9:22 am66 °FBroken clouds.7 mph68%30.24 "HgN/A
9:00 am63 °FBroken clouds.5 mph77%30.24 "HgN/A
8:00 am63 °FPartly sunny.3 mph77%30.24 "HgN/A
7:00 am59 °FPartly sunny.3 mph88%30.24 "HgN/A
6:00 am59 °FPartly sunny.1 mph88%30.24 "HgN/A
5:00 am59 °FOvercast.5 mph82%30.24 "HgN/A
4:00 am59 °FDrizzle. Overcast.5 mph88%30.24 "HgN/A
3:00 am59 °FPassing clouds.9 mph88%30.24 "HgN/A
2:00 am59 °FLight rain. Mostly cloudy.5 mph88%30.24 "Hg2 mi
1:00 am59 °FLight rain. Mostly cloudy.8 mph94%30.27 "Hg6 mi
12:50 am59 °FLight rain. Mostly cloudy.7 mph94%30.27 "HgN/A
12:39 am59 °FLight rain. Mostly cloudy.6 mph94%30.27 "HgN/A
12:00 am59 °FLight rain. Passing clouds.3 mph94%30.27 "HgN/A
11:00 pm
Tue, Sep 29
59 °FLight rain. Partly cloudy.5 mph94%30.27 "HgN/A
10:00 pm61 °FLight rain. Overcast.2 mph88%30.27 "HgN/A
9:00 pm59 °FLight rain. Overcast.3 mph94%30.27 "Hg6 mi
Weather by CustomWeather, © 2020

See weather overview